Regional Weather Roundup
Issued by NWS

Home | Current Version | Previous Version | Graphics & Text | Print | Product List | Glossary On
Versions: 1 2 3 4 5 6 7 8 9 10 11 12 13 14 15 16 17 18 19 20 21 22 23 24 25 26 27 28 29 30 31 32 33 34 35 36 37 38 39 40 41 42 43 44 45 46 47 48 49 50
434
ASUS43 KLOT 260202
RWRIL

ILLINOIS REGIONAL WEATHER ROUNDUP
NATIONAL WEATHER SERVICE CHICAGO/ROMEOVILLE IL
900 PM CDT SAT MAR 25 2017

NOTE: "FAIR" INDICATES FEW OR NO CLOUDS BELOW 12,000 FEET WITH NO
SIGNIFICANT WEATHER AND/OR OBSTRUCTIONS TO VISIBILITY.

* THESE STATIONS ARE NOT UNDER NWS QUALITY CONTROL. THEY ALSO MAY NOT
  REPORT WEATHER SUCH AS PRECIPITATION OR FOG.

ILZ001-002-007-009-015-016-024-260300-
NORTHWEST ILLINOIS

CITY           SKY/WX    TMP DP  RH WIND       PRES   REMARKS
MOLINE         CLOUDY    49  46  90 NE13      29.89S FOG
STERLING*      CLOUDY    45  44  97 NE13      29.93S
SAVANNA*       CLOUDY    43  41  93 NE9       29.95S
$$

ILZ003-004-008-010-011-017-018-260300-
NORTH CENTRAL ILLINOIS

CITY           SKY/WX    TMP DP  RH WIND       PRES   REMARKS
ROCKFORD       LGT RAIN  44  41  89 NE8       29.99R FOG
FREEPORT*      CLOUDY    41  40  97 NE10      29.99R
ROCHELLE*      LGT RAIN  43  43  99 NE14      29.95S
DE KALB*       CLOUDY    44  43  97 E12       29.97R FOG
PERU*          CLOUDY    47  46  97 E14G20    29.93S FOG
$$

ILZ005-006-012>014-019>023-260300-
NORTHEAST ILLINOIS

CITY           SKY/WX    TMP DP  RH WIND       PRES   REMARKS
CHICAGO-OHARE  CLOUDY    45  42  89 NE10      29.98S FOG
CHICAGO-MIDWAY CLOUDY    46  45  96 NE9       29.97F FOG
AURORA         LGT RAIN  46  44  93 NE10      29.96S FOG
LANSING*       CLOUDY    45  45 100 CALM      29.98S FOG
JOLIET*        DRIZZLE   47  47  97 NE7       29.97R
WAUKEGAN       CLOUDY    40  40 100 NE10      30.01S FOG
DUPAGE AIRPORT CLOUDY    44  44 100 NE9       29.97R FOG
WHEELING       CLOUDY    42  42 100 NE7       30.00S FOG
MORRIS*        CLOUDY    47  46  95 NE7       29.95S FOG
$$

LMZ740>746-260300-
SOUTHERN LAKE MICHIGAN

STATION/POSITION SKY/WX   TEMP    WIND        PRES    VSBY  WAVE
                          AIR SEA DIR/SP/G                  HT/PER
                          (F)     (DEG/KT/KT) (MB)    (MI)  (FT/S)
HARRISON CRIB                     360/  7/  8   N/A
BURNHAM HARBOR                    360/  4/ 12   N/A
CALUMET HARBOR             42     330/  5/  7 1014.7S
BURNS HARBOR               56     110/ 14/ 19 1015.6
MICHIGAN CITY              53     100/ 12/ 17   N/A
$$

ILZ025>027-034>036-040-047-049-050-058-095>099-260300-
WEST-CENTRAL ILLINOIS

CITY           SKY/WX    TMP DP  RH WIND       PRES   REMARKS
QUINCY         CLOUDY    58  57  97 E9        29.80S
GALESBURG*     CLOUDY    57  57  99 E7        29.86R
MACOMB*        MOCLDY    56  56  99 E8        29.86S
JACKSONVILLE*  LGT RAIN  59  57  93 E12       29.83S
PITTSFIELD*    CLOUDY    59  57  94 SE8       29.81S
$$

ILZ028>032-037-038-041>044-048-051>054-059>061-260300-
CENTRAL ILLINOIS

CITY           SKY/WX    TMP DP  RH WIND       PRES   REMARKS
PONTIAC        RAIN      57  56  99 E10       29.93S
BLOOMINGTON    LGT RAIN  57  56  96 E8        29.91S
DECATUR        CLOUDY    59  55  87 SE10      29.89R
PEORIA         CLOUDY    59  58  96 E9        29.88R
SPRINGFIELD    CLOUDY    59  57  93 SE9       29.87R
TAYLORVILLE    NOT AVBL
$$

ILZ033-039-045-046-055>057-062-063-260300-
EAST-CENTRAL ILLINOIS

CITY           SKY/WX    TMP DP  RH WIND       PRES   REMARKS
CHAMPAIGN      CLOUDY    59  55  87 E8        29.92R
RANTOUL*       CLOUDY    60  58  94 E6        29.92S
MATTOON        MOCLDY    61  56  83 SE9       29.90R
PARIS*         CLOUDY    61  56  83 SE10      29.94S
$$

ILZ079-100>102-260300-
SOUTHWEST ILLINOIS

CITY           SKY/WX    TMP DP  RH WIND       PRES   REMARKS
ALTON          CLOUDY    54  54 100 SE14      29.85F
BELLEVILLE     MOCLDY    58  58 100 SE6       29.84S
CAHOKIA*       CLEAR     55  52  89 SE6       29.84R
SPARTA*        CLOUDY    58  56  94 S6        29.86S
$$

ILZ064>066-069>071-074>076-080>082-084>086-088>090-092>094-260300-
SOUTH-CENTRAL ILLINOIS

CITY           SKY/WX    TMP DP  RH WIND       PRES   REMARKS
CARBONDALE     LGT RAIN  60  58  92 S10       29.88R
CAIRO*         LGT RAIN  60  57  89 S14       29.89S
EFFINGHAM*     MOCLDY    60  57  89 E8        29.92R
MARION         RAIN      61  61 100 S12G18    29.90R
MT. VERNON     CLOUDY    62  56  80 SE9       29.88S
CENTRALIA*     CLOUDY    62  58  86 SE9       29.86S
SALEM*         CLOUDY    62  56  80 SE6       29.87S
$$

ILZ067-068-072-073-078-083-087-091-260300-
SOUTHEAST ILLINOIS

CITY           SKY/WX    TMP DP  RH WIND       PRES   REMARKS
LAWRENCEVILLE  CLOUDY    62  53  72 SE7       29.93R
FLORA*         CLOUDY    62  56  80 SE10      29.90R
FAIRFIELD*     MOCLDY    60  55  83 SE6       29.89S
HARRISBURG*    CLOUDY    62  57  83 SE8       29.91R
ROBINSON*      CLOUDY    62  53  72 SE5       29.94R
CARMI*         MOCLDY    60  55  84 SE12      29.91R
$$

ABBREVIATIONS USED IN REMARKS
   TC - TEMPERATURE IN CELSIUS
  WCI - WIND CHILL INDEX
   HX - HEAT INDEX
  VSB - VISIBILITY
$$





USA.gov is the U.S. government's official web portal to all federal, state and local government web resources and services.